User: anonymous   Login
Location: Charleston
(38.3500°N, 81.6330°W)
Time: 04:51:19
(UTC-04:00)
Language:

Cosmos 2228 - Orbit

View from above orbital plane
View from above orbital plane
View from above satellite
View from above satellite

Ground track
Ground track

The orbit data is extracted from the following two-line orbital elements,

1 22286U 92094A   18111.94600869 +.00000230 +00000-0 +22260-4 0  9999
2 22286 082.5191 082.9035 0021325 172.1847 187.9707 14.87926562347337
Epoch (UTC): 21 April 2018 22:42:15
Eccentricity: 0.0021325
inclination: 82.5191°
perigee height: 589 km
apogee height: 619 km
right ascension of ascending node: 82.9035°
argument of perigee: 172.1847°
revolutions per day: 14.87926562
mean anomaly at epoch: 187.9707°
orbit number at epoch: 34733

The dashed part of the orbit path shows where the satellite is in the earth's shadow,  

DLR